Location: Heiligenberg
(48.5381°N, 7.3897°E)
Time: 20:59:52
(UTC+00:00)

SL-16 R/B - Pass Details

Date: 26 May 2022
Orbit: 839 x 850 km, 71.0° (Epoch: 03 July)

Event Time Altitude Azimuth Distance (km) Brightness Sun altitude
Exits shadow 00:16:35 15° 135° (SE) 2,139 4.0 -19.5°
Maximum altitude 00:19:17 20° 100° (E) 1,839 4.0 -19.4°
Drops below altitude 10° 00:23:19 10° 55° (NE) 2,472 5.3 -19.3°
Sets 00:26:21 0° 39° (NE) 3,415 6.5 -19.1°
